Location: Carrières
(48.9495°N, 2.0407°E)
Time: 20:44:25
(UTC+00:00)

Transit 2A - Pass Details

Date: 20 April 2024
Orbit: 594 x 957 km, 66.7° (Epoch: 18 May)

Event Time Altitude Azimuth Distance (km) Brightness Sun altitude
Rises 15:11:16 0° 321° (NW) 3,246 9.4 34.5°
Reaches altitude 10° 15:13:37 10° 317° (NW) 2,371 8.9 34.2°
Maximum altitude 15:18:56 53° 241° (WSW) 1,038 8.4 33.4°
Drops below altitude 10° 15:24:44 10° 166° (SSE) 2,579 8.9 32.5°
Sets 15:27:23 0° 162° (SSE) 3,555 9.5 32.1°
